Content
SEND FEEDBACK

Daily
Averages
Monthly
Summary
Switzerland

GENEVA, SWITZERLAND


Home > Europe > Switzerland
Elevation: 1364 feet     Latitude: 46 15N     Longitude: 006 08E

WEATHER
 
SELECT A DAY
Number of Records: 317,687;   Date Range: 7/1/96 - 12/25/14
 
SHARE

PRINT THIS DATA

[ ← Previous Day ]
WEATHER ALMANAC - JULY 4, 2013
[ Next Day → ]
[ °C ]   °F
Weather ElementAverageHighLow
Temperature65.8 °F73.4 °F (3:20 pm)59 °F (11:50 pm)
Dewpoint56.7 °F62.6 °F (12:20 am)51 °F (9:00 pm)
Humidity72.5 %100 % (12:20 am)44 % (4:00 pm)
Barometer30.17 in30.30 in (10:50 pm)30.08 in (1:00 am)
Wind Speed4.4 mph12.7 mph (6:00 pm)
Weather ElementAverage
Visibility7.3 mi
Wind DirectionESE (97.4 °)

Weather ElementTotal
Precipitation---
Cooling Degree Days1.2 (Base 65)
Growing Degree Days16.2 (Base 50)
Averaged from 65 records on July 4, 2013
WEATHER CONDITIONS BREAKOUT
WIND DIRECTION BREAKOUT
WEATHER BY HOUR - JULY 4, 2013
[ °C ]   °F
Local TimeTemperatureDewpointHumidityBarometerVisibilityWind DirectionWind SpeedGust SpeedPrecipitationEventsConditions
12:20 AM62.6 °F62.6 °F100 %30.09 in6.2 miVariable1.2 mphMostly Cloudy
12:50 AM62.6 °F60.8 °F94 %30.09 in6.2 miCalmMostly Cloudy
1:00 AM62.0 °F61.0 °F94 %30.08 inNW (310°)2.3 mph
1:20 AM60.8 °F60.8 °F100 %30.09 in6.2 miVariable1.2 mphMostly Cloudy
1:50 AM60.8 °F60.8 °F100 %30.09 in6.2 miESE (110°)4.6 mphMostly Cloudy
2:00 AM62.0 °F60.0 °F90 %30.09 in14.0 miEast (100°)4.6 mphPartly Cloudy
2:20 AM60.8 °F60.8 °F100 %30.09 in6.2 miVariable1.2 mphMostly Cloudy
2:50 AM60.8 °F60.8 °F100 %30.09 in6.2 miCalmMostly Cloudy
3:00 AM61.0 °F59.0 °F92 %30.09 inNNW (330°)3.5 mph
3:50 AM60.8 °F60.8 °F100 %30.09 in5.0 miVariable3.5 mphRainLight Rain Showers
4:00 AM61.0 °F59.0 °F92 %30.09 inWest (270°)3.5 mph
4:20 AM60.8 °F60.8 °F100 %30.12 in5.0 miCalmRainLight Rain
4:50 AM60.8 °F60.8 °F100 %30.12 in5.6 miSW (220°)4.6 mphRainLight Rain
5:20 AM60.8 °F59.0 °F94 %30.12 in6.2 miVariable3.5 mphRainLight Rain
5:50 AM60.8 °F59.0 °F94 %30.12 in6.2 miSSW (200°)5.8 mphMostly Cloudy
6:00 AM61.0 °F58.0 °F86 %30.11 inSouth (190°)5.8 mph
6:20 AM60.8 °F59.0 °F94 %30.12 in6.2 miVariable3.5 mphMostly Cloudy
6:50 AM60.8 °F59.0 °F94 %30.12 in6.2 miVariable2.3 mphMostly Cloudy
7:00 AM61.0 °F59.0 °F90 %30.13 inWNW (290°)3.5 mph
7:20 AM60.8 °F59.0 °F94 %30.15 in6.2 miWest (280°)3.5 mphMostly Cloudy
7:50 AM60.8 °F60.8 °F100 %30.15 in6.2 miVariable1.2 mphMostly Cloudy
8:00 AM62.0 °F58.0 °F84 %30.14 in12.0 miSSW (200°)3.5 mphPartly Cloudy
8:20 AM62.6 °F59.0 °F88 %30.15 in6.2 miVariable1.2 mphMostly Cloudy
8:50 AM64.4 °F59.0 °F83 %30.15 in6.2 miSouth (180°)3.5 mphMostly Cloudy
9:00 AM63.0 °F56.0 °F72 %30.15 inSSW (200°)3.5 mph
9:20 AM64.4 °F57.2 °F77 %30.18 in6.2 miVariable2.3 mphMostly Cloudy
9:50 AM66.2 °F57.2 °F73 %30.18 in6.2 miCalmScattered Clouds
10:00 AM65.0 °F58.0 °F73 %30.15 inESE (110°)3.5 mph
10:20 AM68.0 °F59.0 °F73 %30.18 in6.2 miESE (120°)3.5 mphMostly Cloudy
10:50 AM68.0 °F57.2 °F68 %30.18 in6.2 miEast (90°)4.6 mphMostly Cloudy
11:20 AM68.0 °F57.2 °F68 %30.18 in6.2 miESE (120°)3.5 mphMostly Cloudy
11:50 AM69.8 °F55.4 °F60 %30.18 in6.2 miVariable3.5 mphMostly Cloudy
12:00 PM67.0 °F52.0 °F49 %30.16 inSSE (150°)3.5 mph
12:20 PM69.8 °F53.6 °F56 %30.18 in6.2 miVariable1.2 mphMostly Cloudy
12:50 PM71.6 °F55.4 °F57 %30.18 in6.2 miEast (100°)4.6 mphMostly Cloudy
1:00 PM70.0 °F55.0 °F48 %30.16 inESE (120°)3.5 mph
1:20 PM69.8 °F53.6 °F56 %30.18 in6.2 miVariable4.6 mphMostly Cloudy
1:50 PM71.6 °F55.4 °F57 %30.18 in6.2 miVariable2.3 mphMostly Cloudy
2:00 PM69.0 °F54.0 °F50 %30.16 in25.0 miNNE (20°)6.9 mphMostly Cloudy
2:20 PM69.8 °F55.4 °F60 %30.21 in6.2 miVariable5.8 mphMostly Cloudy
2:50 PM71.6 °F55.4 °F57 %30.21 in6.2 miNorth (360°)6.9 mphMostly Cloudy
3:00 PM71.0 °F55.0 °F47 %30.16 inNorth (10°)4.6 mph
3:20 PM73.4 °F57.2 °F57 %30.21 in6.2 miVariable4.6 mphScattered Clouds
3:50 PM71.6 °F55.4 °F57 %30.21 in6.2 miENE (70°)8.1 mphPartly Cloudy
4:00 PM71.0 °F54.0 °F44 %30.16 inEast (80°)9.2 mph
4:20 PM71.6 °F55.4 °F57 %30.21 in6.2 miENE (70°)10.4 mphPartly Cloudy
4:50 PM71.6 °F55.4 °F57 %30.21 in6.2 miNE (50°)11.5 mphPartly Cloudy
5:20 PM71.6 °F55.4 °F57 %30.21 in6.2 miNE (50°)11.5 mphPartly Cloudy
5:50 PM71.6 °F55.4 °F57 %30.21 in6.2 miENE (60°)11.5 mphPartly Cloudy
6:00 PM71.0 °F55.0 °F46 %30.17 inENE (60°)12.7 mph
6:20 PM71.6 °F55.4 °F57 %30.21 in6.2 miNE (50°)10.4 mphPartly Cloudy
6:50 PM69.8 °F55.4 °F60 %30.21 in6.2 miNNE (30°)5.8 mphPartly Cloudy
7:00 PM70.0 °F55.0 °F50 %30.19 inNorth (10°)4.6 mph
7:20 PM71.6 °F55.4 °F57 %30.24 in6.2 miNNW (340°)8.1 mphPartly Cloudy
7:50 PM69.8 °F53.6 °F56 %30.24 in6.2 miVariable4.6 mphScattered Clouds
8:00 PM69.0 °F53.0 °F46 %30.20 in31.0 miNNW (330°)4.6 mphPartly Cloudy
8:20 PM69.8 °F53.6 °F56 %30.24 in6.2 miNNW (330°)6.9 mphScattered Clouds
8:50 PM68.0 °F51.8 °F56 %30.24 in6.2 miVariable5.8 mphScattered Clouds
9:00 PM66.0 °F51.0 °F48 %30.22 inNNW (330°)4.6 mph
9:20 PM66.2 °F51.8 °F60 %30.24 in6.2 miVariable3.5 mphScattered Clouds
9:50 PM64.4 °F51.8 °F64 %30.27 in6.2 miNorth (350°)4.6 mphScattered Clouds
10:20 PM62.6 °F51.8 °F68 %30.27 in6.2 miNE (40°)4.6 mphPartly Cloudy
10:50 PM60.8 °F53.6 °F77 %30.30 in6.2 miVariable2.3 mphScattered Clouds
11:20 PM60.8 °F53.6 °F77 %30.30 in6.2 miVariable1.2 mphScattered Clouds
11:50 PM59.0 °F53.6 °F82 %30.30 in6.2 miVariable2.3 mphScattered Clouds
Hourly data recorded from LSGG, located miles away from Geneva, Switzerland







STORIES FROM OUR PARTNERS